OBJECT B, 68415

Orbit data source: Space-Track

You're viewing an Uncataloged Satellite

Recently launched and/or uncataloged satellites may have evolving metadata. Metadata may include but not limited to: Owner, Maufacturer, Bus, Motor, and Mission.

OBJECT B, 68415 is a satellite owned by Unknown (CN) (CN) in LEO that was launched on Mon, 30 Mar 2026 UTC via a LIJIAN-2 launch vehicle from the Jiuquan Satellite Launch Center, China (JSC). Unknown objects in Earth's orbit typically refer to objects detected orbiting the Earth but have not yet been identified or cataloged. These objects could be anything from previously untracked satellites, spent rocket stages, debris from satellite collisions, or even natural meteoroids temporarily captured by Earth's gravity.

Loading next visibility...
Identifier
68415, 2026-066D
Orbit
LEO
Country
Flag of CNCN / PRC
Related business
Flag of CNUnknown Chinese Operator (CN)
Manufacturer
Unknown (CN)
Mission
Spacecraft
Bus & Motor
TIANSHI, Unknown motor
Mass
~100 kg wet, ~100 kg dry
Launch date (UTC)
2026-03-30 (2 weeks ago)
Launch vehicle
LIJIAN-2
Launch site
Jiuquan Satellite Launch Center, China (JSC)
Object type
Unknown
Shape & HBR
Unknown
Radar Cross Section
RCS unknown

Expand to show TLE details & history
Last TLE update: 9 hours ago

TLE from 9 hours ago
0 OBJECT B
1 68415U 26066D   26102.20808958  .00001018  00000-0  10586-3 0  9998
2 68415  84.9620 269.7223 0027346 121.5529 238.8371 14.88421483  1919
Epoch: 2026-04-12T04:59Z
TLE epoch observation values (Epoch: 2026-04-12T04:59:38.939Z)
Latitude
0.00003°
Longitude
-5.60629°
Altitude
615.89 km
Speed
7.546 km/s
True Right ascension
17h 58m 53s
True Declination
0° 00' 00"
Sunlit
Object was in daylight at epoch
Visualization orbit readout
Latitude
Unknown
Longitude
Unknown
Altitude
Unknown
Speed
Unknown
Apparent Right ascension
Unknown
Apparent Declination
Unknown
Sunlit
N/A
Visualization observer readout
Local Sidereal Time
20:03:28
Azimuth
Unknown
Elevation
Unknown
Doppler factor
Unknown
Orbital elements
Apogee altitude
618.873 km
Perigee altitude
580.709 km
Semi-major axis
6,977.928 km
Eccentricity
0.00273
Inclination
84.962°
RAAN
269.7223°
Arg. of periapsis
121.5529°
True anomaly
238.56943°
Mean anomaly
238.8371°
Eccentric anomaly
238.70322°
Mean motion
3.72352 °/min
Orbital period
96.68 mins
BSTAR
0.00010586
Loading maneuver chart data...
Computing Atmospheric mass density...
Loading historical data...
Loading historical data...
Loading historical data...
Loading historical data...
Loading historical data...
Loading historical data...
Loading historical data...
Other satellites on launch #66 in the year 2026 (2026-03-30 UTC)

Documentation

Showing up to 5 results
|